Location: Dana
(41.8364°N, 106.7042°W)
Time: 01:43:41
(UTC+00:00)

Altair - Pass Details

Date: 11 May 2026
Orbit: 1501 x 1682 km, 47.2° (Epoch: 6 June)

Event Time Altitude Azimuth Distance (km) Brightness Sun altitude
Rises 10:19:53 0° 175° (S) 4,799 9.7 -15.0°
Reaches altitude 10° 10:24:40 10° 155° (SSE) 3,853 9.4 -14.3°
Maximum altitude 10:29:54 16° 122° (ESE) 3,441 9.5 -13.5°
Drops below altitude 10° 10:35:12 10° 90° (E) 3,922 10.4 -12.8°
Sets 10:40:05 0° 71° (ENE) 4,931 11.7 -12.1°
